Location: Clayton (historical)
(34.0300°N, 118.0259°W)
Time: 08:24:32
(UTC+00:00)

Cosmos 1484 Rocket - Pass Details

Date: 29 October 2020
Orbit: 504 x 560 km, 97.4° (Epoch: 29 November)

Event Time Altitude Azimuth Distance (km) Brightness Sun altitude
Rises 13:16:54 0° 352° (N) 2,672 6.2 -11.5°
Reaches altitude 10° 13:19:31 10° 334° (NNW) 1,766 5.1 -10.9°
Maximum altitude 13:22:08 18° 290° (WNW) 1,319 4.1 -10.4°
Drops below altitude 10° 13:24:44 10° 246° (WSW) 1,738 4.9 -9.9°
Sets 13:27:17 0° 227° (SW) 2,610 5.9 -9.4°
